STARLINK-2313

Last updated on Sat Apr 24 2021 00:02:02 GMT+0000 (Coordinated Universal Time)

1 47986U 21024K 21113.25001157 .00249751 36443-4 53955-3 0 9994 2 47986 53.0373 52.2377 0008274 280.7352 91.6424 15.97916249 1832

Satellite not in orbit